Skip Page Navigation
NASA JPL Caltech
NASA Logo - Jet Propulsion Laboratory + View the NASA Portal
+ Center for Near-Earth Object Studies
JPL Home Earth Solar System Stars & Galaxies Technology
JPL Solar System Dynamics
BODIES ORBITS EPHEMERIDES TOOLS PHYSICAL DATA DISCOVERY FAQ SITE MAP
IMPORTANT: The SSD Announcement email list is now available. Major changes are coming in the near future, including possible hostname and/or URL changes. To be notified of such changes, subscribe to this email list.

Please visit this page for more details.


JPL Small-Body Database Browser
Search: [ help ]  
35547 (1998 FV106)
Classification: Main-belt Asteroid          SPK-ID: 2035547
Ephemeris | Orbit Diagram | Orbital Elements | Mission Design | Physical Parameters | Discovery Circumstances ]

[ show orbit diagram ]
Orbital Elements at Epoch 2458600.5 (2019-Apr-27.0) TDB
Reference: JPL 25 (heliocentric ecliptic J2000)
 Element Value Uncertainty (1-sigma)   Units 
e .06909607470964019 4.7044e-08  
a 2.690368037894732 1.7098e-08 au
q 2.504474166951929 1.2442e-07 au
i 8.688124762722689 5.9246e-06 deg
node 334.4846291982197 2.5161e-05 deg
peri 324.339213350392 4.6605e-05 deg
M 178.795043336874 3.9603e-05 deg
tp 2457799.985978596278
(2017-Feb-15.48597860)
0.00017839 TDB
period 1611.817879997716
4.41
1.5365e-05
4.207e-08
d
yr
n .2233502956304903 2.1292e-09 deg/d
Q 2.876261908837535 1.8279e-08 au
  Orbit Determination Parameters
   # obs. used (total)      1125  
   data-arc span      7620 days (20.86 yr)  
   first obs. used      1998-03-31  
   last obs. used      2019-02-09  
   planetary ephem.      DE431  
   SB-pert. ephem.      SB431-N16  
   condition code      0  
   norm. resid. RMS      .53846  
   source      ORB  
   producer      Otto Matic  
   solution date      2019-Jul-13 01:47:35  

Additional Information
 Earth MOID = 1.49421 au 
 Jupiter MOID = 2.33417 au 
 T_jup = 3.352 
[ show covariance matrix ]

Ephemeris | Orbit Diagram | Orbital Elements | Mission Design | Physical Parameters | Discovery Circumstances ]

Physical Parameter Table
Parameter Symbol Value Units Sigma Reference Notes
absolute magnitude H 14.5   n/a MPO385040  
diameter diameter 3.593 km 0.705 urn:nasa:pds:neowise_diameters_albedos::2.0[mainbelt] (http://adsabs.harvard.edu/abs/2011ApJ...741...68M)  
geometric albedo albedo 0.286   0.162 urn:nasa:pds:neowise_diameters_albedos::2.0[mainbelt] (http://adsabs.harvard.edu/abs/2011ApJ...741...68M)  

35547 (1998 FV106)          Discovered 1998-Mar-31 by LINEAR at Socorro
Reference: 20020227/Numbers.arcLast Updated: 2004-04-19

Alternate Designations
 1998 FV106 = 2000 VE59 
Ephemeris | Orbit Diagram | Orbital Elements | Mission Design | Physical Parameters | Discovery Circumstances ]
ABOUT SSD CREDITS/AWARDS PRIVACY/COPYRIGHT GLOSSARY LINKS
FirstGov 2019-Oct-20 15:23 UT
(server date/time)  
NASA Home Page
Site Manager:   Ryan S. Park
Webmaster  Alan B. Chamberlin